GLD1136 SSHZ-SSZR

Flight info

Callsign GLD1136
Flight time 0h 12m
Altitude 3500
Route DCT 274132S0542232W 274652S0542221W 275031S0542606W DCT
Aircraft C172/M-SDFGIRY/S

Departure

Time 2026-05-07 00:46
Airport Walter Bündchen Airport (SSHZ)

Arrival

Time 2026-05-07 00:58
Airport Luis Alberto Lehr Airport (SSZR)
Time Latitude Longitude Altitude Speed Heading
2026-05-07 00:43 -27.63534 -54.34205 1067 ft 6 kts 330°
2026-05-07 00:44 -27.63497 -54.34221 1067 ft 4 kts 82°
2026-05-07 00:44 -27.63510 -54.34203 1067 ft 17 kts 138°
2026-05-07 00:44 -27.63744 -54.33987 1067 ft 68 kts 141°
2026-05-07 00:44 -27.64158 -54.33621 1151 ft 79 kts 143°
2026-05-07 00:45 -27.64606 -54.33257 1276 ft 79 kts 142°
2026-05-07 00:45 -27.65065 -54.32888 1316 ft 87 kts 165°
2026-05-07 00:45 -27.65551 -54.33171 1394 ft 83 kts 246°
2026-05-07 00:45 -27.65738 -54.33755 1519 ft 78 kts 245°
2026-05-07 00:46 -27.65977 -54.34301 1634 ft 77 kts 242°
2026-05-07 00:46 -27.66231 -54.34823 1749 ft 75 kts 240°
2026-05-07 00:46 -27.66502 -54.35320 1864 ft 74 kts 237°
2026-05-07 00:46 -27.66805 -54.35781 1980 ft 73 kts 226°
2026-05-07 00:47 -27.67191 -54.36137 2098 ft 72 kts 215°
2026-05-07 00:47 -27.67610 -54.36444 2223 ft 72 kts 212°
2026-05-07 00:47 -27.68038 -54.36739 2349 ft 72 kts 211°
2026-05-07 00:47 -27.68470 -54.37032 2480 ft 74 kts 211°
2026-05-07 00:48 -27.68918 -54.37335 2624 ft 77 kts 211°
2026-05-07 00:48 -27.69434 -54.37534 2749 ft 82 kts 178°
2026-05-07 00:48 -27.70016 -54.37514 2880 ft 86 kts 179°
2026-05-07 00:48 -27.70624 -54.37501 3000 ft 89 kts 178°
2026-05-07 00:49 -27.71254 -54.37481 3113 ft 92 kts 178°
2026-05-07 00:49 -27.71899 -54.37460 3222 ft 93 kts 178°
2026-05-07 00:49 -27.72554 -54.37438 3328 ft 95 kts 178°
2026-05-07 00:49 -27.73209 -54.37415 3430 ft 95 kts 178°
2026-05-07 00:50 -27.73885 -54.37391 3502 ft 99 kts 178°
2026-05-07 00:50 -27.74597 -54.37367 3518 ft 105 kts 178°
2026-05-07 00:50 -27.75346 -54.37341 3516 ft 109 kts 178°
2026-05-07 00:50 -27.76147 -54.37311 3553 ft 122 kts 178°
2026-05-07 00:51 -27.77030 -54.37282 3523 ft 130 kts 178°
2026-05-07 00:51 -27.77928 -54.37356 3441 ft 127 kts 200°
2026-05-07 00:51 -27.78635 -54.37859 3489 ft 114 kts 218°
2026-05-07 00:51 -27.79218 -54.38408 3488 ft 107 kts 221°
2026-05-07 00:52 -27.79763 -54.38951 3488 ft 102 kts 221°
2026-05-07 00:52 -27.80286 -54.39482 3492 ft 100 kts 222°
2026-05-07 00:52 -27.80797 -54.40007 3495 ft 98 kts 222°
2026-05-07 00:52 -27.81294 -54.40519 3498 ft 97 kts 222°
2026-05-07 00:53 -27.81796 -54.41036 3499 ft 97 kts 222°
2026-05-07 00:53 -27.82298 -54.41555 3500 ft 97 kts 222°
2026-05-07 00:53 -27.82728 -54.41999 3491 ft 92 kts 222°
2026-05-07 00:53 -27.83209 -54.42495 3405 ft 95 kts 222°
2026-05-07 00:54 -27.83711 -54.43013 3258 ft 101 kts 222°
2026-05-07 00:54 -27.84221 -54.43582 3099 ft 104 kts 227°
2026-05-07 00:54 -27.84703 -54.44190 2935 ft 105 kts 229°
2026-05-07 00:54 -27.85186 -54.44812 2768 ft 105 kts 229°
2026-05-07 00:55 -27.85667 -54.45435 2598 ft 103 kts 229°
2026-05-07 00:55 -27.86116 -54.46008 2407 ft 93 kts 226°
2026-05-07 00:55 -27.86560 -54.46495 2219 ft 86 kts 222°
2026-05-07 00:55 -27.86996 -54.46928 2051 ft 80 kts 220°
2026-05-07 00:56 -27.87437 -54.47349 1965 ft 86 kts 220°
2026-05-07 00:56 -27.87909 -54.47801 1860 ft 91 kts 221°
2026-05-07 00:56 -27.88373 -54.48276 1772 ft 92 kts 222°
2026-05-07 00:56 -27.88842 -54.48775 1645 ft 92 kts 226°
2026-05-07 00:57 -27.89249 -54.49324 1522 ft 88 kts 234°
2026-05-07 00:57 -27.89566 -54.49877 1424 ft 81 kts 237°
2026-05-07 00:57 -27.89861 -54.50404 1313 ft 77 kts 237°
2026-05-07 00:57 -27.90142 -54.50906 1204 ft 76 kts 237°
2026-05-07 00:58 -27.90427 -54.51398 1090 ft 73 kts 236°
2026-05-07 00:58 -27.90692 -54.51873 989 ft 65 kts 238°
2026-05-07 00:58 -27.90846 -54.52155 988 ft 14 kts 243°
2026-05-07 00:58 -27.90846 -54.52209 988 ft 0 kts 259°